[[{"header":{"parameterUnit":"m.s-1","parameterCategory":2,"la1":30.2991,"la2":30.254,"lo1":-89.0895,"lo2":-89.0444,"dy":0.0017,"dx":0.0017,"nx":28,"ny":28,"refTime":"2024-06-07T03:00:00:Z","depth":"0","parameterNumber":2,"parameterNumberName":"U-component_of_CURRENTS"},"data":[0,0,0,0,0,0,0,0,0,0,0,0,0,0,0,0,0,0,0,0,0,0,0,0,0,0,0,0,0,0,0,0,0,0,0,0,0,0,0,0,0,0,0,0,0,0,0,0,0,0,0,0,0,0,0,0,0,0,0.3129,0.3129,0,0.3118,0.3118,0.3118,0.3095,0.3094,0.3094,0.3094,0.3073,0.3073,0.3073,0,0,0,0,0,0,0,0,0,0,0,0,0,0.3136,0.3135,0.3129,0.3129,0.3129,0.3118,0.3118,0.3118,0.3095,0.3094,0.3094,0.3094,0.3073,0.3073,0.3073,0,0,0,0,0,0,0,0,0,0,0,0,0,0.3127,0.3135,0.3129,0.3118,0.3118,0.3118,0.3118,0.3117,0.3095,0.3094,0.3094,0.3094,0.3073,0.3073,0.3072,0.3076,0,0,0.3071,0.3071,0,0,0,0,0,0,0,0,0.3128,0.3127,0.312,0.3119,0.3118,0.311,0.3113,0.3104,0.3095,0.3101,0.3094,0.3094,0.3086,0.3085,0.308,0.3075,0.3075,0.3071,0.3071,0.307,0.307,0,0,0,0,0,0,0,0.3128,0.3127,0.3122,0.312,0.3119,0.3116,0.3114,0.3111,0.3094,0.31,0.3099,0.3102,0.3085,0.3081,0.3079,0.3074,0.3071,0.307,0.307,0.307,0.312,0.3122,0,0,0,0,0,0,0.3135,0.3128,0.3123,0.3122,0.3125,0.3117,0.3114,0.3111,0.3094,0.3092,0.3102,0.3101,0.3082,0.308,0.3079,0.3116,0.307,0.307,0.307,0.3119,0.3121,0.3123,0,0,0,0,0,0,0.3135,0.3134,0.3123,0.3127,0.3126,0.3117,0.3113,0.3111,0.3112,0.3096,0.3093,0.3107,0.3081,0.3079,0.3089,0.3114,0.307,0.3069,0.3117,0.3119,0.3122,0.317,0,0,0,0,0,0,0.3135,0.3134,0.3136,0.3127,0.3126,0.3136,0.3114,0.3111,0.3115,0.3113,0.3099,0.3096,0.3081,0.309,0.3088,0.3113,0.3069,0.3115,0.3118,0.3121,0.3167,0.3174,0.318,0,0,0,0,0,0.3135,0.3137,0.3135,0.3135,0.3127,0.3137,0.3136,0.3127,0.3116,0.3124,0.3115,0.3097,0.3109,0.309,0.3088,0.3113,0.3113,0.3117,0.3121,0.3163,0.3173,0.318,0,0,0,0,0,0,0.3138,0.3135,0.3133,0.3133,0.3142,0.3134,0.3139,0.3134,0.3132,0.3128,0.311,0.3108,0.3133,0.3117,0.3098,0.314,0.3111,0.3115,0.3145,0.3153,0.316,0.3187,0.3068,0,0,0,0,0,0.3141,0.3143,0.3145,0.3148,0.3153,0.3148,0.3151,0.3147,0.3144,0.3143,0.3132,0.313,0.3146,0.3144,0.3152,0.3163,0.319,0.3182,0.3189,0.3195,0.3218,0.3303,0.332,0.3135,0.3135,0.3135,0,0,0.3141,0.3143,0.3141,0.3149,0.3151,0.3162,0.3148,0.3157,0.3169,0.3142,0.315,0.3157,0.3159,0.3181,0.319,0.3168,0.3257,0.32,0.3204,0.3225,0.3308,0.3327,0.3343,0.3137,0.3137,0.3136,0,0,0.3145,0.3146,0.3151,0.3163,0.3175,0.3176,0.3184,0.3183,0.3187,0.32,0.3196,0.3224,0.3218,0.3239,0.3246,0.3299,0.33,0.3293,0.3337,0.3419,0.3435,0.345,0.3484,0.3501,0.3285,0.3285,0.3285,0,0.3147,0.3149,0.3156,0.3169,0.318,0.3186,0.3198,0.321,0.3212,0.3231,0.3211,0.326,0.3255,0.3313,0.3329,0.3317,0.3347,0.33,0.3429,0.3444,0.3459,0.349,0.3509,0.3288,0.3288,0.3288,0.3287,0,0.3153,0.3162,0.3169,0.3186,0.3203,0.3215,0.3236,0.3255,0.3259,0.3274,0.3332,0.334,0.3372,0.3377,0.3364,0.3462,0.3444,0.3436,0.3408,0.3481,0.3508,0.3527,0.3292,0.3291,0.329,0.329,0,0,0.3135,0.3165,0.3167,0.3179,0.3212,0.3223,0.3264,0.3304,0.3341,0.336,0.3421,0.3455,0.3471,0.3484,0.3484,0.3547,0.3657,0.3532,0.3535,0.3566,0.3814,0.3681,0.3688,0.3676,0.368,0.3683,0.3784,0,0.3136,0.3155,0.3178,0.3203,0.3212,0.325,0.329,0.3334,0.3372,0.3434,0.3483,0.3537,0.3508,0.3534,0.3597,0.366,0.3713,0.3629,0.374,0.3743,0.3618,0.3709,0.3509,0.3573,0.3802,0.3805,0.3808,0,0.3128,0.3143,0.3162,0.321,0.3221,0.3247,0.332,0.3356,0.3456,0.3498,0.3573,0.3611,0.3714,0.3678,0.3824,0.3773,0.3801,0.3836,0.384,0.3719,0.3647,0.3544,0.3599,0.3514,0.3836,0.3834,0.3832,0,0.3091,0.3131,0.3144,0.3158,0.3216,0.3247,0.3283,0.3372,0.3424,0.3548,0.3614,0.3724,0.3798,0.3877,0.3927,0.3897,0.408,0.4044,0.3947,0.3936,0.379,0.3758,0.3778,0.4155,0.4154,0.4154,0.4154,0,0.307,0.308,0.3127,0.3133,0.3167,0.3222,0.3281,0.3345,0.3462,0.3547,0.3641,0.3738,0.3861,0.3959,0.3986,0.4022,0.4127,0.3983,0.3972,0.3794,0.3764,0.37,0.3679,0.4158,0.4157,0.4156,0.4156,0,0.3019,0.3048,0.3066,0.3126,0.3144,0.3167,0.3262,0.3316,0.3436,0.356,0.3611,0.379,0.3919,0.3995,0.4136,0.4086,0.401,0.4112,0.3866,0.3823,0.3606,0.3595,0.3467,0.3378,0.4028,0.4025,0.4023,0,0.299,0.2993,0.3042,0.3052,0.3077,0.3123,0.3164,0.3283,0.3351,0.3583,0.3644,0.3821,0.3918,0.4047,0.4012,0.4025,0.3936,0.3823,0.3725,0.3589,0.3573,0.3425,0.335,0.355,0.3544,0.3539,0.3535,0,0.2939,0.2959,0.2973,0.2992,0.3024,0.3063,0.3132,0.3186,0.3352,0.347,0.3633,0.3738,0.3857,0.379,0.3791,0.3771,0.361,0.3722,0.3676,0.3283,0.3035,0.2942,0.3466,0.3493,0.3498,0.3501,0.3503,0.3505,0.2897,0.2891,0.2909,0.2914,0.2948,0.298,0.2988,0.3091,0.3186,0.3317,0.3498,0.3561,0.3572,0.3544,0.3502,0.3286,0.3325,0.3153,0.3178,0.3059,0.2883,0.3282,0.3232,0.3234,0.3237,0.3239,0.324,0,0.2822,0.282,0.283,0.2826,0.2817,0.2875,0.2943,0.2939,0.3,0.3125,0.3218,0.3197,0.3103,0.3083,0.291,0.2765,0.264,0.2692,0.2478,0.2458,0.2904,0.2792,0.2527,0.2527,0.2528,0.2528,0.2528,0.2528,0.2784,0.2747,0.274,0.2679,0.2683,0.2651,0.2667,0.2692,0.2739,0.2728,0.27,0.2737,0.2805,0.2685,0.2489,0.2418,0.2265,0.2095,0.2178,0.2536,0.2582,0.2625,0.2515,0.2197,0.2197,0.157,0.1566,0.1562]},{"header":{"parameterUnit":"m.s-1","parameterCategory":2,"la1":30.2991,"la2":30.254,"lo1":-89.0895,"lo2":-89.0444,"dy":0.0017,"dx":0.0017,"nx":28,"ny":28,"refTime":"2024-06-07T03:00:00:Z","depth":"0","parameterNumber":3,"parameterNumberName":"V-component_of_CURRENTS"},"data":[0,0,0,0,0,0,0,0,0,0,0,0,0,0,0,0,0,0,0,0,0,0,0,0,0,0,0,0,0,0,0,0,0,0,0,0,0,0,0,0,0,0,0,0,0,0,0,0,0,0,0,0,0,0,0,0,0,0,0.0407,0.0407,0,0.0378,0.0377,0.0377,0.0351,0.035,0.035,0.035,0.0294,0.0293,0.0292,0,0,0,0,0,0,0,0,0,0,0,0,0,0.0399,0.0399,0.0407,0.0407,0.0407,0.0378,0.0377,0.0377,0.0351,0.035,0.035,0.035,0.0295,0.0293,0.0291,0,0,0,0,0,0,0,0,0,0,0,0,0,0.0388,0.0399,0.0408,0.0391,0.0389,0.0378,0.0377,0.0377,0.0351,0.035,0.035,0.035,0.0295,0.0293,0.0291,0.0285,0,0,0.0285,0.0284,0,0,0,0,0,0,0,0,0.0389,0.0388,0.0394,0.0392,0.039,0.0369,0.0354,0.0345,0.0351,0.0364,0.035,0.035,0.0318,0.0314,0.0308,0.0283,0.028,0.0285,0.0284,0.0283,0.0283,0,0,0,0,0,0,0,0.039,0.0389,0.0395,0.0394,0.0392,0.0371,0.0369,0.0352,0.0342,0.0363,0.0361,0.036,0.0316,0.031,0.0306,0.028,0.0285,0.0283,0.0282,0.0281,0.0248,0.0248,0,0,0,0,0,0,0.0398,0.039,0.0396,0.0394,0.039,0.0371,0.037,0.0375,0.0342,0.0338,0.036,0.0359,0.0313,0.0308,0.0304,0.0312,0.0283,0.0281,0.028,0.0248,0.0248,0.0248,0,0,0,0,0,0,0.0398,0.0399,0.0397,0.0392,0.039,0.0372,0.0378,0.0375,0.037,0.0341,0.0335,0.036,0.0313,0.0307,0.0297,0.0309,0.028,0.0279,0.0247,0.0248,0.0248,0.0317,0,0,0,0,0,0,0.0398,0.04,0.0406,0.0393,0.0391,0.0398,0.0379,0.0374,0.037,0.0368,0.0339,0.0333,0.0312,0.03,0.0295,0.0306,0.0277,0.0247,0.0248,0.0248,0.0314,0.0319,0.0324,0,0,0,0,0,0.0398,0.0412,0.0407,0.0407,0.0401,0.0399,0.0396,0.0381,0.0371,0.0374,0.0355,0.0334,0.0299,0.0299,0.0293,0.0303,0.0247,0.0247,0.0248,0.0312,0.0318,0.0324,0,0,0,0,0,0,0.0411,0.041,0.0404,0.0417,0.0411,0.0395,0.0398,0.0385,0.0373,0.0372,0.034,0.0334,0.0329,0.0305,0.0305,0.0293,0.0268,0.0268,0.0319,0.0325,0.0329,0.035,0.0276,0,0,0,0,0,0.0418,0.0429,0.042,0.0431,0.0431,0.0415,0.0411,0.0403,0.039,0.0384,0.0362,0.0339,0.0326,0.0317,0.0299,0.0295,0.0282,0.0295,0.03,0.0305,0.0316,0.0312,0.0318,0.025,0.025,0.025,0,0,0.0425,0.0426,0.0432,0.0434,0.0429,0.0439,0.0412,0.0415,0.0424,0.038,0.0382,0.0357,0.0329,0.0326,0.0321,0.0308,0.0317,0.0305,0.031,0.0319,0.0313,0.032,0.0326,0.0251,0.0251,0.0251,0,0,0.0449,0.0448,0.0466,0.0467,0.0466,0.0459,0.0463,0.0449,0.0444,0.0443,0.0415,0.0399,0.0375,0.0359,0.0348,0.0368,0.0344,0.0357,0.04,0.0396,0.0402,0.0407,0.0402,0.0406,0.0359,0.036,0.036,0,0.0456,0.0482,0.0469,0.0487,0.0497,0.0473,0.0496,0.0488,0.0472,0.0476,0.0453,0.0426,0.0393,0.0399,0.0402,0.0381,0.0375,0.0383,0.0404,0.0409,0.0413,0.0406,0.041,0.0363,0.0363,0.0362,0.0362,0,0.0496,0.0515,0.0527,0.0545,0.0551,0.0568,0.056,0.0562,0.055,0.054,0.0539,0.0497,0.0484,0.0464,0.0438,0.0451,0.0437,0.0414,0.0395,0.0424,0.0415,0.0417,0.0368,0.0367,0.0366,0.0365,0,0,0.0521,0.055,0.0556,0.0582,0.0588,0.0603,0.0618,0.0632,0.0656,0.0623,0.0653,0.0606,0.0581,0.0567,0.0529,0.0514,0.0527,0.048,0.0479,0.0486,0.0524,0.0487,0.0486,0.0512,0.0513,0.0514,0.0507,0,0.0559,0.0612,0.0613,0.0667,0.0697,0.0688,0.0709,0.0715,0.0712,0.073,0.0687,0.0695,0.0622,0.0625,0.0598,0.0554,0.0537,0.0531,0.0485,0.0484,0.0456,0.0489,0.0524,0.0519,0.0509,0.051,0.051,0,0.0603,0.0636,0.0696,0.0745,0.0758,0.0784,0.083,0.0847,0.0854,0.0852,0.0843,0.0812,0.0792,0.0727,0.0663,0.0667,0.0602,0.0555,0.0553,0.0499,0.0452,0.0486,0.0524,0.0449,0.0513,0.0513,0.0513,0,0.0644,0.0698,0.0755,0.0771,0.0814,0.0845,0.087,0.0887,0.0926,0.0941,0.0978,0.0927,0.0934,0.0844,0.0732,0.0709,0.0662,0.0618,0.0522,0.0518,0.0529,0.0525,0.0499,0.0574,0.0574,0.0574,0.0574,0,0.0692,0.0738,0.0784,0.0817,0.0891,0.0903,0.0981,0.0992,0.1039,0.1119,0.1053,0.1112,0.0967,0.0918,0.0788,0.0671,0.0705,0.0542,0.0519,0.0552,0.055,0.0467,0.0419,0.0574,0.0574,0.0574,0.0574,0,0.073,0.0755,0.0828,0.0889,0.0914,0.0972,0.106,0.1122,0.1152,0.1263,0.1282,0.1267,0.1209,0.1044,0.0911,0.0765,0.0595,0.0583,0.0626,0.0607,0.043,0.0384,0.0306,0.0281,0.0485,0.0484,0.0483,0,0.0754,0.0795,0.0883,0.0934,0.0969,0.1053,0.1118,0.1171,0.1255,0.1377,0.1449,0.1426,0.1441,0.121,0.0947,0.0713,0.0602,0.057,0.0517,0.0437,0.037,0.0318,0.03,0.0562,0.0562,0.0562,0.0562,0,0.0801,0.0833,0.0893,0.0998,0.1081,0.1179,0.1286,0.1373,0.1474,0.1594,0.1742,0.1769,0.1552,0.1344,0.0986,0.0807,0.0531,0.056,0.0481,0.0432,0.0376,0.0335,0.0543,0.0561,0.0561,0.0561,0.0561,0.0561,0.0836,0.0886,0.0967,0.1069,0.1166,0.1302,0.141,0.1561,0.1738,0.1938,0.1943,0.2014,0.1696,0.1225,0.0972,0.0542,0.0529,0.0421,0.0375,0.0332,0.0298,0.0495,0.0476,0.0476,0.0475,0.0475,0.0475,0,0.0876,0.0936,0.1033,0.116,0.1273,0.1322,0.152,0.1666,0.1915,0.2075,0.2205,0.2082,0.17,0.1271,0.0697,0.0421,0.0319,0.0276,0.0237,0.0228,0.042,0.0414,0.0378,0.0378,0.0378,0.0379,0.0379,0.0379,0.0898,0.0987,0.1038,0.1221,0.132,0.15,0.1627,0.1876,0.204,0.2266,0.2308,0.2294,0.1996,0.1017,0.0412,0.0277,0.0129,0.007,-0.0007,0.0145,0.0156,0.0166,0.015,0.006,0.006,-0.0152,-0.0155,-0.0156]}],[{"header":{"parameterUnit":"m.s-1","parameterCategory":2,"la1":30.2991,"la2":30.254,"lo1":-89.0895,"lo2":-89.0444,"dy":0.0017,"dx":0.0017,"nx":28,"ny":28,"refTime":"2024-06-07T03:00:00:Z","depth":"2","parameterNumber":2,"parameterNumberName":"U-component_of_CURRENTS"},"data":[0,0,0,0,0,0,0,0,0,0,0,0,0,0,0,0,0,0,0,0,0,0,0,0,0,0,0,0,0,0,0,0,0,0,0,0,0,0,0,0,0,0,0,0,0,0,0,0,0,0,0,0,0,0,0,0,0,0,0.276,0.276,0,0.2756,0.2756,0.2756,0.2747,0.2747,0.2748,0.2748,0.2742,0.2742,0.2742,0,0,0,0,0,0,0,0,0,0,0,0,0,0.2762,0.2761,0.276,0.276,0.2761,0.2756,0.2756,0.2756,0.2747,0.2747,0.2748,0.2748,0.2742,0.2742,0.2742,0,0,0,0,0,0,0,0,0,0,0,0,0,0.2757,0.2761,0.276,0.2758,0.2758,0.2756,0.2756,0.2756,0.2747,0.2747,0.2748,0.2748,0.2742,0.2742,0.2742,0.2738,0,0,0.2741,0.2741,0,0,0,0,0,0,0,0,0.2758,0.2757,0.2758,0.2758,0.2758,0.2755,0.2755,0.2751,0.2747,0.2749,0.2748,0.2748,0.2748,0.2747,0.2743,0.2738,0.2738,0.2741,0.2741,0.2741,0.2741,0,0,0,0,0,0,0,0.2758,0.2757,0.2756,0.2758,0.2758,0.2757,0.2757,0.2754,0.2746,0.2749,0.2749,0.2752,0.2747,0.2743,0.2743,0.2738,0.2741,0.2741,0.2741,0.274,0.2793,0.2795,0,0,0,0,0,0,0.2763,0.2757,0.2756,0.2756,0.2761,0.2758,0.2756,0.2754,0.2746,0.2746,0.2752,0.2752,0.2743,0.2743,0.2742,0.2787,0.2741,0.274,0.274,0.2792,0.2794,0.2795,0,0,0,0,0,0,0.2763,0.2763,0.2757,0.2759,0.2759,0.2758,0.2754,0.2754,0.2762,0.2749,0.2748,0.2763,0.2743,0.2743,0.2758,0.2784,0.274,0.274,0.279,0.2792,0.2795,0.2844,0,0,0,0,0,0,0.2763,0.2763,0.2767,0.2759,0.2759,0.2771,0.2754,0.2753,0.2765,0.2764,0.2758,0.2757,0.2743,0.2758,0.2758,0.2783,0.274,0.2788,0.2791,0.2794,0.284,0.2847,0.2854,0,0,0,0,0,0.2763,0.2766,0.2767,0.2768,0.2763,0.2772,0.2772,0.2769,0.2765,0.2776,0.2774,0.2758,0.2777,0.2759,0.2758,0.2784,0.2787,0.279,0.2794,0.2837,0.2846,0.2854,0,0,0,0,0,0,0.2768,0.2766,0.2766,0.2769,0.2779,0.2772,0.278,0.2779,0.2784,0.2786,0.2771,0.277,0.2799,0.2786,0.2766,0.2811,0.2782,0.2786,0.2816,0.2824,0.2831,0.2852,0.274,0,0,0,0,0,0.2772,0.2775,0.2778,0.2783,0.2789,0.2788,0.2793,0.2793,0.2795,0.2797,0.2793,0.2795,0.2811,0.2812,0.282,0.2834,0.2853,0.2854,0.2861,0.2867,0.2885,0.2948,0.2963,0.2807,0.2807,0.2807,0,0,0.2773,0.2776,0.2776,0.2785,0.2789,0.28,0.2791,0.2804,0.2818,0.2796,0.2813,0.2822,0.2823,0.2847,0.2859,0.2838,0.2919,0.2871,0.2876,0.2892,0.2954,0.2969,0.2983,0.2809,0.2809,0.2809,0,0,0.2779,0.2784,0.2789,0.2801,0.2817,0.2818,0.2828,0.2832,0.2841,0.2859,0.2858,0.2887,0.2887,0.2904,0.291,0.2961,0.296,0.296,0.3002,0.3063,0.3077,0.3089,0.3121,0.3136,0.2955,0.2955,0.2955,0,0.2784,0.2786,0.2794,0.2808,0.2819,0.283,0.2843,0.2856,0.2866,0.2885,0.2874,0.2922,0.292,0.2969,0.2988,0.2978,0.3003,0.2966,0.3073,0.3085,0.3097,0.3127,0.3143,0.2958,0.2958,0.2957,0.2957,0,0.279,0.28,0.2808,0.2826,0.2843,0.2858,0.2879,0.2902,0.2914,0.2929,0.2985,0.2994,0.3026,0.3032,0.3023,0.3106,0.3094,0.308,0.3051,0.3116,0.3143,0.3159,0.2962,0.2961,0.296,0.296,0,0,0.2776,0.2804,0.2808,0.282,0.2854,0.2864,0.2905,0.2944,0.2979,0.3005,0.306,0.3096,0.3114,0.3126,0.3128,0.3178,0.3273,0.3166,0.3168,0.3197,0.3398,0.3283,0.3288,0.3281,0.3284,0.3287,0.338,0,0.2777,0.2795,0.2817,0.2843,0.2852,0.289,0.2928,0.2972,0.3009,0.3066,0.3112,0.3164,0.3145,0.3173,0.3223,0.3271,0.3318,0.3248,0.3333,0.3335,0.3224,0.3304,0.3012,0.3062,0.3395,0.3397,0.3399,0,0.277,0.2784,0.2804,0.2849,0.286,0.2887,0.2955,0.299,0.3081,0.3122,0.3192,0.3228,0.3318,0.329,0.3408,0.3366,0.3393,0.342,0.3423,0.3313,0.3249,0.3054,0.3077,0.3425,0.3423,0.3421,0.3419,0,0.2736,0.2775,0.2788,0.2802,0.2857,0.289,0.2926,0.3008,0.3052,0.3168,0.3226,0.3322,0.3385,0.3451,0.3497,0.3471,0.362,0.3583,0.3502,0.3493,0.326,0.3225,0.3675,0.3675,0.3675,0.3675,0.3674,0,0.2715,0.2727,0.2776,0.2782,0.2816,0.287,0.2926,0.2986,0.3088,0.3157,0.3252,0.3327,0.3436,0.3518,0.3546,0.3571,0.3659,0.3535,0.3523,0.3266,0.3231,0.3555,0.354,0.3678,0.3677,0.3677,0.3676,0,0.2669,0.2698,0.2717,0.2777,0.2796,0.2822,0.2909,0.2954,0.3065,0.3165,0.3214,0.3364,0.3477,0.3554,0.3669,0.362,0.3663,0.3644,0.3321,0.3269,0.3482,0.3469,0.3574,0.3571,0.3568,0.3566,0.3564,0,0.2644,0.2647,0.2698,0.2708,0.2735,0.2782,0.2819,0.2927,0.2982,0.3173,0.3219,0.3376,0.3446,0.3559,0.3532,0.3554,0.3641,0.327,0.3162,0.3501,0.3479,0.347,0.346,0.2873,0.2865,0.2859,0.2855,0,0.2594,0.2617,0.2631,0.2651,0.2682,0.2713,0.2778,0.2812,0.2955,0.304,0.3159,0.3235,0.3352,0.3235,0.3259,0.323,0.3241,0.3147,0.3615,0.2935,0.2845,0.2822,0.2835,0.2801,0.2807,0.2811,0.2813,0.2816,0.2558,0.2552,0.257,0.2578,0.2608,0.2621,0.2609,0.2685,0.2737,0.2826,0.2993,0.3006,0.3034,0.2923,0.2829,0.2746,0.2975,0.2815,0.2832,0.2855,0.2749,0.2658,0.256,0.2563,0.2566,0.2569,0.2572,0,0.2488,0.2486,0.2493,0.2483,0.2465,0.2525,0.2556,0.251,0.2503,0.2628,0.2692,0.2491,0.2403,0.2438,0.2219,0.2193,0.2162,0.2099,0.2028,0.2083,0.2132,0.1986,0.1596,0.1593,0.159,0.1587,0,0,0.2452,0.2415,0.2405,0.2331,0.233,0.2272,0.2261,0.2208,0.2234,0.2192,0.2179,0.2367,0.24,0.1998,0.1916,0.1717,0.1897,0.1649,0.2436,0.2413,0.2458,0.2551,0.239,0,0,0,0,0]},{"header":{"parameterUnit":"m.s-1","parameterCategory":2,"la1":30.2991,"la2":30.254,"lo1":-89.0895,"lo2":-89.0444,"dy":0.0017,"dx":0.0017,"nx":28,"ny":28,"refTime":"2024-06-07T03:00:00:Z","depth":"2","parameterNumber":3,"parameterNumberName":"V-component_of_CURRENTS"},"data":[0,0,0,0,0,0,0,0,0,0,0,0,0,0,0,0,0,0,0,0,0,0,0,0,0,0,0,0,0,0,0,0,0,0,0,0,0,0,0,0,0,0,0,0,0,0,0,0,0,0,0,0,0,0,0,0,0,0,0.0269,0.0268,0,0.0241,0.024,0.024,0.0219,0.0219,0.0218,0.0218,0.0168,0.0167,0.0166,0,0,0,0,0,0,0,0,0,0,0,0,0,0.0262,0.0263,0.0269,0.0268,0.0268,0.0241,0.024,0.024,0.0219,0.0219,0.0218,0.0218,0.0169,0.0167,0.0166,0,0,0,0,0,0,0,0,0,0,0,0,0,0.0252,0.0263,0.0269,0.0255,0.0254,0.0241,0.024,0.024,0.0219,0.0219,0.0218,0.0218,0.0169,0.0167,0.0165,0.0157,0,0,0.016,0.0159,0,0,0,0,0,0,0,0,0.0253,0.0252,0.0257,0.0256,0.0254,0.0234,0.022,0.0211,0.0219,0.0231,0.0218,0.0218,0.0189,0.0185,0.0179,0.0155,0.0153,0.016,0.0158,0.0158,0.0157,0,0,0,0,0,0,0,0.0253,0.0253,0.0257,0.0257,0.0255,0.0236,0.0235,0.0218,0.021,0.023,0.0228,0.0227,0.0188,0.0181,0.0178,0.0152,0.016,0.0158,0.0157,0.0156,0.0125,0.0125,0,0,0,0,0,0,0.0261,0.0254,0.0257,0.0256,0.0254,0.0237,0.0235,0.024,0.0211,0.0206,0.0227,0.0226,0.0185,0.018,0.0176,0.0185,0.0158,0.0156,0.0155,0.0125,0.0125,0.0125,0,0,0,0,0,0,0.0261,0.0262,0.0259,0.0254,0.0253,0.0237,0.0243,0.0239,0.0236,0.0209,0.0204,0.0228,0.0184,0.0179,0.017,0.0182,0.0155,0.0153,0.0124,0.0125,0.0125,0.019,0,0,0,0,0,0,0.0261,0.0263,0.0269,0.0255,0.0253,0.0259,0.0243,0.0239,0.0236,0.0235,0.0208,0.0203,0.0184,0.0173,0.0168,0.0179,0.0152,0.0124,0.0125,0.0125,0.0188,0.0193,0.0197,0,0,0,0,0,0.0261,0.0273,0.0269,0.027,0.0263,0.0259,0.0257,0.0244,0.0236,0.024,0.0223,0.0204,0.0173,0.0172,0.0166,0.0177,0.0124,0.0124,0.0125,0.0186,0.0192,0.0197,0,0,0,0,0,0,0.0273,0.0272,0.0267,0.0278,0.0272,0.0256,0.0259,0.0249,0.0238,0.0238,0.021,0.0204,0.02,0.0178,0.0178,0.0168,0.0144,0.0144,0.0192,0.0198,0.0202,0.0219,0.015,0,0,0,0,0,0.0279,0.0289,0.0281,0.029,0.029,0.0275,0.0272,0.0265,0.0253,0.0249,0.0229,0.0209,0.0198,0.019,0.0173,0.0169,0.0153,0.017,0.0175,0.0179,0.0189,0.0178,0.0183,0.0127,0.0127,0.0127,0,0,0.0285,0.0287,0.0291,0.0293,0.0288,0.0297,0.0273,0.0276,0.0284,0.0245,0.0249,0.0226,0.02,0.0198,0.0194,0.0182,0.0187,0.018,0.0184,0.0191,0.0179,0.0185,0.019,0.0128,0.0128,0.0128,0,0,0.0306,0.0306,0.0322,0.0322,0.0322,0.0315,0.0319,0.0307,0.0304,0.0303,0.0279,0.0266,0.0243,0.023,0.022,0.0239,0.0213,0.023,0.0269,0.0259,0.0264,0.0268,0.0257,0.026,0.0232,0.0232,0.0233,0,0.0313,0.0336,0.0325,0.0341,0.035,0.0328,0.035,0.0343,0.0329,0.0333,0.0314,0.0289,0.0261,0.0267,0.027,0.0252,0.0242,0.0253,0.0267,0.027,0.0273,0.0262,0.0264,0.0236,0.0235,0.0235,0.0235,0,0.0348,0.0366,0.0376,0.0394,0.0399,0.0415,0.0408,0.041,0.0401,0.0392,0.0393,0.0355,0.0344,0.0327,0.0304,0.0313,0.0298,0.0276,0.0257,0.0283,0.0269,0.027,0.024,0.0239,0.0238,0.0237,0,0,0.0369,0.0396,0.0402,0.0426,0.0433,0.0447,0.0461,0.0475,0.0497,0.0468,0.0493,0.0455,0.0433,0.042,0.0386,0.0369,0.0374,0.0336,0.0334,0.0334,0.0356,0.0329,0.0327,0.0358,0.0358,0.0359,0.0338,0,0.0404,0.0452,0.0454,0.0504,0.0531,0.0524,0.0544,0.055,0.0549,0.0563,0.0524,0.0532,0.047,0.0472,0.0444,0.0397,0.0379,0.0382,0.0322,0.0321,0.0301,0.0329,0.0337,0.0318,0.0339,0.0339,0.0339,0,0.0444,0.0473,0.0529,0.0574,0.0586,0.0612,0.0654,0.067,0.0676,0.0674,0.0665,0.0636,0.0613,0.0557,0.0487,0.0494,0.0433,0.0385,0.0383,0.0338,0.0296,0.0293,0.0319,0.034,0.034,0.034,0.034,0,0.048,0.053,0.0583,0.0598,0.0638,0.0668,0.0692,0.0708,0.0744,0.0754,0.0783,0.0734,0.073,0.0647,0.0538,0.0522,0.0458,0.0423,0.0341,0.0338,0.0323,0.0318,0.0377,0.0377,0.0377,0.0377,0.0377,0,0.0523,0.0566,0.0609,0.064,0.0709,0.0721,0.0794,0.0804,0.0845,0.0912,0.0851,0.0892,0.0754,0.0698,0.0582,0.0469,0.0492,0.0358,0.0335,0.0345,0.0342,0.0339,0.0335,0.0376,0.0377,0.0377,0.0377,0,0.0558,0.0582,0.0649,0.0707,0.073,0.0785,0.0867,0.0924,0.0948,0.1037,0.1052,0.1019,0.0953,0.0802,0.0669,0.054,0.0424,0.0374,0.0392,0.0371,0.03,0.0299,0.0292,0.0291,0.029,0.029,0.0289,0,0.058,0.0618,0.0701,0.0749,0.0782,0.0862,0.0923,0.097,0.1044,0.1129,0.1186,0.1147,0.114,0.0918,0.0688,0.0484,0.0443,0.0336,0.0298,0.0315,0.0293,0.0294,0.0294,0.0304,0.0304,0.0303,0.0303,0,0.0623,0.0654,0.071,0.0808,0.0886,0.0977,0.1075,0.1149,0.1231,0.1317,0.1415,0.1418,0.1215,0.1005,0.0696,0.0545,0.0365,0.0322,0.0349,0.032,0.0323,0.0302,0.0303,0.03,0.03,0.0301,0.0301,0.0301,0.0657,0.0703,0.0779,0.0875,0.0966,0.1087,0.118,0.13,0.1438,0.1576,0.1572,0.1578,0.1321,0.0936,0.0662,0.0356,0.0382,0.0256,0.0259,0.0261,0.0262,0.0263,0.0229,0.0229,0.0229,0.0229,0.0229,0,0.0696,0.075,0.084,0.0957,0.1061,0.1109,0.1277,0.1381,0.1561,0.1676,0.1757,0.1517,0.1276,0.0972,0.0532,0.0274,0.0244,0.017,0.0196,0.0202,0.0206,0.0205,0.0156,0.0155,0.0154,0.0153,0,0,0.0716,0.0798,0.0843,0.101,0.1102,0.1259,0.1364,0.1527,0.1643,0.1758,0.1766,0.174,0.1377,0.1041,0.0687,0.0426,0.037,0.0361,0.045,0.053,0.0537,0.0285,0.0293,0,0,0,0,0]}],[{"header":{"parameterUnit":"m.s-1","parameterCategory":2,"la1":30.2991,"la2":30.254,"lo1":-89.0895,"lo2":-89.0444,"dy":0.0017,"dx":0.0017,"nx":28,"ny":28,"refTime":"2024-06-07T03:00:00:Z","depth":"4","parameterNumber":2,"parameterNumberName":"U-component_of_CURRENTS"},"data":[0,0,0,0,0,0,0,0,0,0,0,0,0,0,0,0,0,0,0,0,0,0,0,0,0,0,0,0,0,0,0,0,0,0,0,0,0,0,0,0,0,0,0,0,0,0,0,0,0,0,0,0,0,0,0,0,0,0,0.1807,0.1807,0,0.1851,0.1852,0.1852,0.1903,0.1904,0.1905,0.1906,0.1971,0.1971,0.1972,0,0,0,0,0,0,0,0,0,0,0,0,0,0.1759,0.1759,0.1807,0.1808,0.1808,0.1851,0.1852,0.1852,0.1903,0.1904,0.1905,0.1906,0.197,0.1971,0.1972,0,0,0,0,0,0,0,0,0,0,0,0,0,0.1787,0.1759,0.1807,0.184,0.1844,0.1851,0.1852,0.1852,0.1902,0.1904,0.1905,0.1907,0.197,0.1971,0.1973,0.1952,0,0,0.1976,0.1977,0,0,0,0,0,0,0,0,0.1785,0.1788,0.1835,0.1838,0.1842,0.1875,0.1859,0.1887,0.1902,0.1878,0.1906,0.1907,0.1941,0.1944,0.1946,0.1955,0.1958,0.1977,0.1977,0.1978,0.1978,0,0,0,0,0,0,0,0.1783,0.1787,0.1822,0.1835,0.184,0.1851,0.1856,0.1864,0.19,0.188,0.1884,0.1892,0.1943,0.1945,0.1948,0.1959,0.1976,0.1978,0.1978,0.1979,0.2073,0.2075,0,0,0,0,0,0,0.1781,0.1785,0.1821,0.1824,0.1819,0.1851,0.1857,0.1861,0.1899,0.1907,0.1891,0.1894,0.1942,0.1947,0.1951,0.2035,0.1978,0.1979,0.198,0.2072,0.2074,0.2076,0,0,0,0,0,0,0.1779,0.1783,0.1819,0.1807,0.1813,0.185,0.1855,0.1861,0.1905,0.1908,0.1916,0.1933,0.1943,0.1949,0.1997,0.2034,0.198,0.1981,0.207,0.2072,0.2075,0.2134,0,0,0,0,0,0,0.1778,0.1782,0.1805,0.1807,0.1814,0.1851,0.1854,0.1861,0.1906,0.1912,0.1945,0.195,0.1945,0.1995,0.1998,0.2034,0.1982,0.2067,0.2071,0.2074,0.213,0.2138,0.2146,0,0,0,0,0,0.1776,0.1792,0.1805,0.1811,0.1836,0.1852,0.1858,0.1887,0.1907,0.193,0.1958,0.1951,0.2018,0.1997,0.2,0.2038,0.2066,0.207,0.2074,0.2126,0.2137,0.2145,0,0,0,0,0,0,0.1784,0.1799,0.1813,0.1835,0.1858,0.1863,0.1892,0.1908,0.1947,0.1966,0.1969,0.1976,0.2034,0.2028,0.2004,0.2076,0.2043,0.2047,0.2082,0.2091,0.2099,0.2106,0.1983,0,0,0,0,0,0.1795,0.1815,0.1828,0.1852,0.1866,0.1887,0.1906,0.1925,0.1949,0.197,0.1992,0.2018,0.2044,0.2063,0.2082,0.2115,0.2122,0.2144,0.2152,0.2158,0.2168,0.2206,0.2218,0.2089,0.2089,0.2089,0,0,0.1805,0.1818,0.1831,0.1857,0.1878,0.1899,0.1903,0.1942,0.1971,0.1969,0.2029,0.2051,0.2061,0.2105,0.213,0.2109,0.2201,0.2163,0.2169,0.2174,0.2211,0.2224,0.2235,0.2091,0.2091,0.209,0,0,0.1821,0.185,0.1868,0.1889,0.1928,0.1937,0.1958,0.1986,0.2018,0.2066,0.2078,0.2125,0.2159,0.2175,0.2184,0.2247,0.2245,0.226,0.2302,0.2339,0.235,0.236,0.2393,0.2405,0.2259,0.2259,0.226,0,0.184,0.1856,0.1878,0.1901,0.1925,0.1958,0.1983,0.2013,0.2058,0.2087,0.2099,0.2175,0.2189,0.2237,0.2267,0.2265,0.2286,0.2262,0.2349,0.2359,0.2367,0.2399,0.2411,0.2263,0.2262,0.2262,0.2262,0,0.1851,0.1884,0.19,0.1937,0.1967,0.1998,0.2033,0.208,0.2123,0.2148,0.2225,0.225,0.2296,0.231,0.2311,0.2382,0.2379,0.2357,0.2323,0.2384,0.2413,0.2425,0.2268,0.2266,0.2265,0.2265,0,0,0.1839,0.1897,0.1908,0.1933,0.1991,0.2009,0.2072,0.2123,0.217,0.2229,0.2289,0.2347,0.2376,0.2391,0.2404,0.2438,0.2524,0.2434,0.2435,0.2463,0.2618,0.2426,0.242,0.2523,0.2525,0.2527,0.2616,0,0.1846,0.1886,0.1919,0.1971,0.1992,0.2049,0.2099,0.2159,0.2216,0.2283,0.2334,0.2398,0.2401,0.2441,0.248,0.2515,0.2558,0.2503,0.2558,0.2559,0.2377,0.2428,0.2534,0.2625,0.2628,0.2629,0.2631,0,0.1838,0.1868,0.1916,0.1984,0.2002,0.2048,0.2137,0.2186,0.2282,0.2334,0.241,0.2452,0.2535,0.2523,0.262,0.2589,0.2621,0.2637,0.264,0.2446,0.2388,0.255,0.2652,0.265,0.2649,0.2647,0.2646,0,0.1793,0.1864,0.1904,0.1928,0.201,0.2062,0.2117,0.2211,0.2259,0.238,0.2429,0.2524,0.2587,0.2641,0.2693,0.2674,0.2784,0.275,0.2607,0.2595,0.2716,0.2705,0.2823,0.2823,0.2823,0.2822,0.2822,0,0.1761,0.1799,0.1897,0.1916,0.1977,0.205,0.2127,0.2198,0.2302,0.2355,0.246,0.2512,0.2625,0.2693,0.2726,0.2698,0.2815,0.2623,0.2603,0.274,0.273,0.2725,0.2712,0.2826,0.2825,0.2824,0.2824,0,0.1698,0.1761,0.1813,0.1918,0.1956,0.2005,0.2121,0.2165,0.2281,0.2358,0.2404,0.2535,0.2619,0.2701,0.2797,0.2714,0.2722,0.269,0.285,0.2837,0.2504,0.2494,0.2523,0.2517,0.2511,0.2507,0.2503,0,0.1662,0.1685,0.1804,0.1837,0.1893,0.1976,0.2024,0.2146,0.2186,0.2345,0.2364,0.25,0.2571,0.2548,0.2652,0.2684,0.2656,0.263,0.2543,0.2495,0.2474,0.2472,0.2469,0.2495,0.2494,0.2493,0.2491,0,0.1592,0.1657,0.1701,0.177,0.1832,0.1876,0.1958,0.1969,0.2101,0.2232,0.2262,0.2297,0.2381,0.2438,0.2482,0.2502,0.2618,0.2575,0.2585,0.2504,0.2462,0.2446,0.2449,0.2473,0.2476,0.2478,0.2479,0,0.155,0.1564,0.1633,0.1677,0.1747,0.1747,0.1802,0.184,0.1892,0.206,0.2077,0.2221,0.2364,0.2346,0.2392,0.2386,0.2341,0.2237,0.2263,0.2284,0.216,0.2069,0.1947,0,0,0,0,0,0.1493,0.1489,0.1527,0.1551,0.1614,0.165,0.1739,0.1794,0.1926,0.189,0.197,0.2039,0.208,0.216,0.2108,0.229,0.2357,0.2215,0.2252,0.2374,0.2395,0.2268,0,0,0,0,0,0,0.145,0.1485,0.1485,0.1437,0.1433,0.1472,0.1524,0.1612,0.1593,0.1745,0.1789,0.19,0.199,0.2101,0.2069,0.2091,0.2063,0.2311,0.2305,0.2362,0.2381,0.2398,0.2275,0,0,0,0,0]},{"header":{"parameterUnit":"m.s-1","parameterCategory":2,"la1":30.2991,"la2":30.254,"lo1":-89.0895,"lo2":-89.0444,"dy":0.0017,"dx":0.0017,"nx":28,"ny":28,"refTime":"2024-06-07T03:00:00:Z","depth":"4","parameterNumber":3,"parameterNumberName":"V-component_of_CURRENTS"},"data":[0,0,0,0,0,0,0,0,0,0,0,0,0,0,0,0,0,0,0,0,0,0,0,0,0,0,0,0,0,0,0,0,0,0,0,0,0,0,0,0,0,0,0,0,0,0,0,0,0,0,0,0,0,0,0,0,0,0,0.0178,0.0177,0,0.0162,0.0161,0.0161,0.0151,0.0151,0.0151,0.0151,0.0118,0.0117,0.0116,0,0,0,0,0,0,0,0,0,0,0,0,0,0.017,0.0171,0.0178,0.0177,0.0177,0.0162,0.0161,0.0161,0.0151,0.0151,0.0151,0.0151,0.0118,0.0117,0.0116,0,0,0,0,0,0,0,0,0,0,0,0,0,0.0165,0.0171,0.0178,0.0171,0.017,0.0162,0.0161,0.0161,0.0151,0.0151,0.0151,0.0151,0.0119,0.0117,0.0116,0.0109,0,0,0.0112,0.0112,0,0,0,0,0,0,0,0,0.0166,0.0166,0.0172,0.0171,0.017,0.0159,0.0147,0.0143,0.0151,0.0158,0.0151,0.0151,0.013,0.0128,0.0125,0.0107,0.0106,0.0112,0.0111,0.0111,0.011,0,0,0,0,0,0,0,0.0166,0.0166,0.0171,0.0172,0.0171,0.0159,0.0158,0.0146,0.0144,0.0157,0.0157,0.0156,0.013,0.0126,0.0124,0.0105,0.0112,0.0111,0.011,0.011,0.0092,0.0092,0,0,0,0,0,0,0.0171,0.0167,0.0171,0.017,0.0168,0.0159,0.0158,0.0162,0.0144,0.0142,0.0156,0.0155,0.0128,0.0125,0.0123,0.0135,0.0111,0.0109,0.0109,0.0091,0.0092,0.0092,0,0,0,0,0,0,0.0171,0.0171,0.0172,0.0168,0.0167,0.0159,0.0163,0.0162,0.0163,0.0143,0.014,0.0159,0.0128,0.0124,0.012,0.0133,0.0109,0.0108,0.0091,0.0091,0.0092,0.0145,0,0,0,0,0,0,0.0171,0.0172,0.0178,0.0169,0.0168,0.0173,0.0164,0.0162,0.0162,0.0161,0.0145,0.0141,0.0128,0.0123,0.0119,0.013,0.0107,0.0091,0.0091,0.0092,0.0143,0.0147,0.0151,0,0,0,0,0,0.017,0.0179,0.0178,0.0179,0.0176,0.0174,0.0172,0.0166,0.0162,0.0166,0.0156,0.0142,0.0124,0.0122,0.0118,0.0129,0.009,0.0091,0.0092,0.0141,0.0146,0.0151,0,0,0,0,0,0,0.0178,0.0179,0.0177,0.0186,0.0183,0.0172,0.0176,0.017,0.0165,0.0167,0.0147,0.0143,0.0144,0.0127,0.0126,0.0124,0.0104,0.0104,0.0143,0.0148,0.0152,0.0164,0.0106,0,0,0,0,0,0.0183,0.0192,0.0187,0.0194,0.0195,0.0187,0.0185,0.0182,0.0175,0.0173,0.0161,0.0149,0.0142,0.0138,0.0127,0.0127,0.011,0.013,0.0134,0.0138,0.0144,0.013,0.0134,0.0094,0.0094,0.0094,0,0,0.0188,0.019,0.0194,0.0197,0.0195,0.0204,0.0186,0.019,0.0199,0.017,0.0178,0.0163,0.0145,0.0147,0.0146,0.0136,0.0139,0.0138,0.0142,0.0146,0.0131,0.0135,0.0139,0.0095,0.0095,0.0094,0,0,0.0203,0.0205,0.0218,0.022,0.0221,0.0218,0.0221,0.0215,0.0215,0.0218,0.0202,0.0196,0.0182,0.0175,0.0169,0.0187,0.0161,0.0181,0.0213,0.0199,0.0203,0.0205,0.0189,0.019,0.0183,0.0183,0.0183,0,0.0208,0.0227,0.022,0.0233,0.0242,0.0228,0.0246,0.0244,0.0236,0.0242,0.0228,0.0216,0.0198,0.0206,0.0212,0.0198,0.0184,0.0198,0.0206,0.0208,0.021,0.0192,0.0192,0.0186,0.0186,0.0185,0.0185,0,0.0233,0.025,0.0258,0.0274,0.028,0.0294,0.0292,0.0297,0.0294,0.029,0.0296,0.027,0.0266,0.0255,0.0239,0.0246,0.023,0.0213,0.0196,0.0217,0.0197,0.0196,0.019,0.0189,0.0188,0.0187,0,0,0.0245,0.0271,0.0276,0.0298,0.0307,0.0319,0.0335,0.035,0.0371,0.0352,0.0375,0.0352,0.0338,0.033,0.0306,0.0289,0.0286,0.026,0.0258,0.025,0.0255,0.0227,0.0223,0.0271,0.0271,0.0272,0.0236,0,0.027,0.0309,0.0315,0.0357,0.0379,0.038,0.04,0.0409,0.0413,0.0427,0.0401,0.0411,0.0367,0.0371,0.0347,0.0304,0.0286,0.0297,0.0231,0.0229,0.0207,0.0223,0.0272,0.0235,0.0235,0.0235,0.0235,0,0.0297,0.0322,0.0368,0.0411,0.0422,0.0446,0.0487,0.0504,0.0513,0.0515,0.0512,0.0491,0.0472,0.0431,0.0366,0.0375,0.0323,0.028,0.0278,0.0234,0.02,0.0208,0.0233,0.0233,0.0233,0.0233,0.0233,0,0.0318,0.0363,0.0407,0.0421,0.046,0.049,0.0514,0.0535,0.0567,0.0579,0.0599,0.0563,0.0557,0.0486,0.0393,0.0385,0.0314,0.0292,0.0216,0.0214,0.0226,0.0223,0.0248,0.0248,0.0248,0.0249,0.0249,0,0.0345,0.0381,0.0426,0.0451,0.0512,0.0529,0.0594,0.0608,0.0645,0.0694,0.0653,0.0673,0.0571,0.0516,0.0421,0.0316,0.0335,0.0227,0.0205,0.0248,0.0248,0.0225,0.0223,0.0247,0.0247,0.0248,0.0248,0,0.0361,0.0387,0.0444,0.0501,0.0525,0.0573,0.0653,0.07,0.0723,0.0786,0.0797,0.0763,0.0694,0.0579,0.0462,0.0361,0.0258,0.0215,0.0272,0.0253,0.016,0.0161,0.0136,0.0135,0.0134,0.0133,0.0132,0,0.0371,0.0402,0.0482,0.0525,0.0558,0.0632,0.0686,0.0735,0.079,0.0842,0.0875,0.0833,0.0791,0.0607,0.0472,0.029,0.0254,0.0185,0.0167,0.0169,0.015,0.0152,0.0155,0.013,0.013,0.013,0.0129,0,0.0392,0.0424,0.0473,0.056,0.0631,0.0711,0.0793,0.0837,0.0902,0.0926,0.0943,0.0857,0.0775,0.0618,0.0471,0.0337,0.0219,0.0173,0.0175,0.0157,0.0161,0.0145,0.0148,0.0126,0.0126,0.0127,0.0127,0,0.0411,0.0447,0.0514,0.0593,0.0681,0.0768,0.081,0.088,0.0932,0.0985,0.0988,0.0902,0.0853,0.0644,0.0512,0.0373,0.033,0.0257,0.0253,0.0255,0.0287,0.031,0.0309,0,0,0,0,0,0.0426,0.0468,0.0541,0.0632,0.0721,0.0776,0.0874,0.0912,0.0974,0.0994,0.0994,0.0921,0.0736,0.0658,0.0517,0.0477,0.0293,0.0301,0.0203,0.0106,0.011,0.0124,0,0,0,0,0,0,0.0434,0.05,0.0538,0.0651,0.0718,0.0823,0.0888,0.0933,0.0941,0.0977,0.0887,0.0856,0.068,0.0823,0.0507,0.0467,0.0375,0.0224,0.022,0.0104,0.0108,0.0111,0.0126,0,0,0,0,0]}]]